SDM6356 URMM-ULLI

Flight info

Callsign SDM6356
Flight time 3h 20m
Altitude 35000
Route URILU R227 BEMES DCT DITEK/K0839F360 DCT AST DCT LIDUS DCT SUBED DCT SL A927 WGD DCT OBABI DCT ATLOG DCT LAMKO DCT ABABO DCT OLOPI N50 NUDKO T561 ODATI T875 GENPA
Aircraft A320/M-SDE3FGHIRWY/LB1

Departure

Time 2026-04-22 13:50
Airport Mineralnye Vody Airport (URMM)

Arrival

Time 2026-04-22 17:10
Airport Pulkovo Airport (ULLI)
Time Latitude Longitude Altitude Speed Heading
2026-04-22 13:21 44.21354 43.09906 1051 ft 0 kts 121°
2026-04-22 13:39 44.21364 43.09883 1051 ft 4 kts 119°
2026-04-22 13:39 44.21377 43.09849 1051 ft 4 kts 113°
2026-04-22 13:40 44.21385 43.09814 1051 ft 4 kts 98°
2026-04-22 13:40 44.21384 43.09781 1051 ft 4 kts 48°
2026-04-22 13:40 44.21376 43.09772 1051 ft 1 kts 33°
2026-04-22 13:42 44.21384 43.09779 1051 ft 5 kts 33°
2026-04-22 13:43 44.21400 43.09794 1051 ft 2 kts 33°
2026-04-22 13:43 44.21421 43.09813 1051 ft 3 kts 33°
2026-04-22 13:43 44.21437 43.09827 1051 ft 2 kts 33°
2026-04-22 13:43 44.21463 43.09851 1051 ft 10 kts 33°
2026-04-22 13:44 44.21515 43.09900 1051 ft 8 kts 35°
2026-04-22 13:44 44.21544 43.09962 1051 ft 9 kts 72°
2026-04-22 13:44 44.21556 43.10036 1051 ft 7 kts 77°
2026-04-22 13:44 44.21566 43.10100 1051 ft 8 kts 77°
2026-04-22 13:45 44.21579 43.10176 1051 ft 7 kts 73°
2026-04-22 13:45 44.21611 43.10228 1051 ft 7 kts 37°
2026-04-22 13:45 44.21645 43.10258 1050 ft 0 kts 32°
2026-04-22 13:48 44.21653 43.10265 1050 ft 5 kts 32°
2026-04-22 13:48 44.21682 43.10290 1050 ft 6 kts 32°
2026-04-22 13:48 44.21717 43.10320 1051 ft 5 kts 32°
2026-04-22 13:48 44.21741 43.10330 1051 ft 4 kts
2026-04-22 13:49 44.21758 43.10320 1052 ft 3 kts 328°
2026-04-22 13:49 44.21797 43.10245 1053 ft 25 kts 302°
2026-04-22 13:49 44.22020 43.09750 1056 ft 92 kts 302°
2026-04-22 13:49 44.22467 43.08769 1055 ft 145 kts 302°
2026-04-22 13:50 44.22860 43.07905 1090 ft 170 kts 302°
2026-04-22 13:50 44.23729 43.06043 1993 ft 171 kts 303°
2026-04-22 13:50 44.24366 43.04650 2783 ft 172 kts 302°
2026-04-22 13:50 44.25038 43.03140 3052 ft 195 kts 302°
2026-04-22 13:51 44.25800 43.01440 3334 ft 219 kts 302°
2026-04-22 13:51 44.26352 43.00211 3630 ft 232 kts 301°
2026-04-22 13:51 44.27521 42.97605 4643 ft 241 kts 301°
2026-04-22 13:51 44.28118 42.96277 5169 ft 245 kts 300°
2026-04-22 13:52 44.29360 42.93514 6091 ft 258 kts 299°
2026-04-22 13:52 44.30060 42.92136 6440 ft 270 kts 310°
2026-04-22 13:52 44.31709 42.90800 7081 ft 285 kts 345°
2026-04-22 13:52 44.33702 42.90933 7826 ft 295 kts 18°
2026-04-22 13:53 44.35409 42.92543 8546 ft 303 kts 51°
2026-04-22 13:53 44.36313 42.95191 9231 ft 307 kts 84°
2026-04-22 13:53 44.36135 42.98116 9904 ft 303 kts 117°
2026-04-22 13:53 44.35093 43.00685 10359 ft 313 kts 128°
2026-04-22 13:54 44.33879 43.03295 10612 ft 336 kts 128°
2026-04-22 13:54 44.32543 43.06119 10823 ft 359 kts 128°
2026-04-22 13:54 44.31138 43.09136 11000 ft 382 kts 123°
2026-04-22 13:54 44.30066 43.12603 11492 ft 394 kts 114°
2026-04-22 13:55 44.29175 43.16255 12083 ft 401 kts 110°
2026-04-22 13:55 44.28377 43.20013 12675 ft 407 kts 109°
2026-04-22 13:55 44.27349 43.25155 13449 ft 415 kts 109°
2026-04-22 13:55 44.26820 43.27732 13822 ft 418 kts 109°
2026-04-22 13:56 44.25983 43.31627 14341 ft 423 kts 110°
2026-04-22 13:56 44.25098 43.35561 14864 ft 427 kts 111°
2026-04-22 13:56 44.24178 43.39518 15395 ft 431 kts 111°
2026-04-22 13:56 44.23237 43.43508 15926 ft 435 kts 112°
2026-04-22 13:57 44.22281 43.47544 16438 ft 439 kts 112°
2026-04-22 13:57 44.21320 43.51605 16963 ft 444 kts 112°
2026-04-22 13:57 44.20351 43.55711 17495 ft 448 kts 112°
2026-04-22 13:57 44.19381 43.59848 18008 ft 452 kts 112°
2026-04-22 13:58 44.18403 43.64032 18467 ft 456 kts 112°
2026-04-22 13:58 44.17418 43.68247 18890 ft 459 kts 111°
2026-04-22 13:58 44.16602 43.72573 19313 ft 466 kts 103°
2026-04-22 13:58 44.16093 43.77061 19728 ft 470 kts 101°
2026-04-22 13:59 44.15589 43.81568 20138 ft 474 kts 101°
2026-04-22 13:59 44.15076 43.86113 20531 ft 476 kts 101°
2026-04-22 13:59 44.14555 43.90679 20947 ft 479 kts 101°
2026-04-22 13:59 44.14028 43.95272 21347 ft 482 kts 101°
2026-04-22 14:00 44.13502 43.99833 21717 ft 484 kts 101°
2026-04-22 14:00 44.12966 44.04473 22082 ft 487 kts 101°
2026-04-22 14:00 44.12425 44.09151 22444 ft 490 kts 101°
2026-04-22 14:00 44.11881 44.13832 22790 ft 492 kts 101°
2026-04-22 14:01 44.11329 44.18554 23136 ft 495 kts 101°
2026-04-22 14:01 44.10773 44.23292 23477 ft 497 kts 101°
2026-04-22 14:01 44.10212 44.28061 23771 ft 499 kts 101°
2026-04-22 14:01 44.09652 44.32823 24091 ft 500 kts 101°
2026-04-22 14:02 44.09089 44.37609 24388 ft 502 kts 101°
2026-04-22 14:02 44.08522 44.42413 24665 ft 504 kts 101°
2026-04-22 14:02 44.07951 44.47221 24935 ft 505 kts 101°
2026-04-22 14:02 44.07373 44.52050 25195 ft 507 kts 101°
2026-04-22 14:03 44.06791 44.56898 25451 ft 509 kts 101°
2026-04-22 14:03 44.06218 44.61774 25697 ft 511 kts 101°
2026-04-22 14:03 44.05689 44.66667 25942 ft 513 kts 100°
2026-04-22 14:03 44.05193 44.71574 26174 ft 515 kts 99°
2026-04-22 14:04 44.04713 44.76462 26389 ft 516 kts 99°
2026-04-22 14:04 44.04220 44.81480 26613 ft 518 kts 99°
2026-04-22 14:04 44.03730 44.86377 26800 ft 519 kts 99°
2026-04-22 14:04 44.03217 44.91352 27057 ft 520 kts 100°
2026-04-22 14:05 44.02691 44.96320 27348 ft 519 kts 100°
2026-04-22 14:05 44.02156 45.01286 27630 ft 519 kts 100°
2026-04-22 14:05 44.01081 45.11195 28184 ft 518 kts 99°
2026-04-22 14:06 44.00545 45.16144 28479 ft 518 kts 99°
2026-04-22 14:06 44.00013 45.21090 28770 ft 518 kts 99°
2026-04-22 14:06 43.99481 45.26045 29058 ft 518 kts 99°
2026-04-22 14:06 43.98943 45.30986 29345 ft 518 kts 99°
2026-04-22 14:07 43.98396 45.35927 29644 ft 518 kts 100°
2026-04-22 14:07 43.97838 45.40860 29940 ft 517 kts 100°
2026-04-22 14:07 43.97274 45.45793 30183 ft 517 kts 100°
2026-04-22 14:07 43.96711 45.50717 30453 ft 517 kts 100°
2026-04-22 14:08 43.96151 45.55641 30699 ft 516 kts 100°
2026-04-22 14:08 43.95593 45.60558 30993 ft 514 kts 100°
2026-04-22 14:08 43.95034 45.65459 31264 ft 513 kts 100°
2026-04-22 14:08 43.94475 45.70349 31542 ft 512 kts 100°
2026-04-22 14:09 43.93916 45.75218 31819 ft 511 kts 101°
2026-04-22 14:09 43.93358 45.80060 32094 ft 510 kts 101°
2026-04-22 14:09 43.92900 45.84965 32369 ft 511 kts 94°
2026-04-22 14:09 43.92892 45.89833 32628 ft 510 kts 86°
2026-04-22 14:10 43.93365 45.94703 32891 ft 509 kts 77°
2026-04-22 14:10 43.94266 45.99448 33142 ft 508 kts 72°
2026-04-22 14:10 43.95242 46.04152 33425 ft 508 kts 73°
2026-04-22 14:10 43.96208 46.08840 33707 ft 505 kts 73°
2026-04-22 14:11 43.97168 46.13530 34008 ft 503 kts 73°
2026-04-22 14:11 43.98118 46.18207 34233 ft 503 kts 73°
2026-04-22 14:11 43.99063 46.22879 34459 ft 502 kts 73°
2026-04-22 14:11 44.00006 46.27551 34672 ft 502 kts 73°
2026-04-22 14:12 44.00945 46.32214 34839 ft 502 kts 73°
2026-04-22 14:12 44.02831 46.41610 34904 ft 506 kts 73°
2026-04-22 14:13 44.04716 46.51049 34893 ft 507 kts 73°
2026-04-22 14:13 44.06606 46.60503 34891 ft 507 kts 73°
2026-04-22 14:14 44.08491 46.69966 34894 ft 507 kts 73°
2026-04-22 14:14 44.10357 46.79432 34910 ft 508 kts 74°
2026-04-22 14:15 44.12218 46.88905 34902 ft 508 kts 74°
2026-04-22 14:15 44.14075 46.98408 34880 ft 508 kts 73°
2026-04-22 14:16 44.15928 47.07908 34900 ft 508 kts 73°
2026-04-22 14:16 44.17760 47.17346 34910 ft 508 kts 74°
2026-04-22 14:17 44.19593 47.26856 34916 ft 508 kts 74°
2026-04-22 14:17 44.21421 47.36373 34917 ft 508 kts 74°
2026-04-22 14:18 44.23232 47.45883 34921 ft 507 kts 74°
2026-04-22 14:18 44.25034 47.55398 34932 ft 507 kts 74°
2026-04-22 14:19 44.26834 47.64912 34926 ft 507 kts 75°
2026-04-22 14:19 44.28622 47.74431 34922 ft 507 kts 75°
2026-04-22 14:20 44.31288 47.88727 34925 ft 507 kts 75°
2026-04-22 14:20 44.33290 47.98156 34916 ft 505 kts 63°
2026-04-22 14:21 44.37339 48.05890 34891 ft 493 kts 37°
2026-04-22 14:21 44.40111 48.08714 34317 ft 482 kts 22°
2026-04-22 14:22 44.46318 48.11419 33859 ft 461 kts 358°
2026-04-22 14:22 44.49455 48.11528 33927 ft 456 kts 351°
2026-04-22 14:23 44.59009 48.11028 33920 ft 458 kts 350°
2026-04-22 14:23 44.65372 48.10653 33921 ft 457 kts 350°
2026-04-22 14:24 44.71729 48.10274 33917 ft 457 kts 350°
2026-04-22 14:24 44.78088 48.09900 33918 ft 457 kts 350°
2026-04-22 14:25 44.84453 48.09530 33928 ft 458 kts 350°
2026-04-22 14:25 44.90819 48.09158 33945 ft 457 kts 350°
2026-04-22 14:25 44.93922 48.08561 33941 ft 445 kts 337°
2026-04-22 14:26 44.96739 48.06967 33935 ft 431 kts 324°
2026-04-22 14:26 45.01883 48.02754 33927 ft 429 kts 323°
2026-04-22 14:27 45.07029 47.98465 33917 ft 429 kts 322°
2026-04-22 14:27 45.12171 47.94161 33940 ft 429 kts 323°
2026-04-22 14:28 45.17317 47.89858 33925 ft 430 kts 323°
2026-04-22 14:28 45.22476 47.85540 33906 ft 431 kts 323°
2026-04-22 14:29 45.27637 47.81217 33901 ft 431 kts 323°
2026-04-22 14:29 45.32796 47.76883 33933 ft 430 kts 323°
2026-04-22 14:30 45.37940 47.72552 33929 ft 429 kts 322°
2026-04-22 14:30 45.43072 47.68217 33934 ft 429 kts 322°
2026-04-22 14:31 45.48197 47.63875 33929 ft 428 kts 322°
2026-04-22 14:31 45.53323 47.59535 33924 ft 428 kts 322°
2026-04-22 14:32 45.58444 47.55187 33911 ft 428 kts 322°
2026-04-22 14:32 45.63558 47.50838 33907 ft 428 kts 322°
2026-04-22 14:33 45.68630 47.46507 33935 ft 427 kts 322°
2026-04-22 14:33 45.73734 47.42146 33924 ft 427 kts 322°
2026-04-22 14:34 45.78840 47.37758 33917 ft 428 kts 322°
2026-04-22 14:34 45.83945 47.33376 33907 ft 428 kts 322°
2026-04-22 14:35 45.89048 47.28990 33931 ft 427 kts 322°
2026-04-22 14:35 45.94146 47.24594 33919 ft 427 kts 322°
2026-04-22 14:36 45.99241 47.20194 33913 ft 427 kts 322°
2026-04-22 14:36 46.04331 47.15789 33906 ft 427 kts 322°
2026-04-22 14:37 46.09414 47.11376 33938 ft 426 kts 321°
2026-04-22 14:37 46.14482 47.06973 33932 ft 425 kts 321°
2026-04-22 14:38 46.18680 47.03316 33924 ft 424 kts 321°
2026-04-22 14:38 46.24542 46.98193 33919 ft 424 kts 321°
2026-04-22 14:39 46.28773 46.94485 33914 ft 425 kts 321°
2026-04-22 14:39 46.33807 46.90061 33891 ft 426 kts 321°
2026-04-22 14:40 46.41409 46.83376 33890 ft 427 kts 321°
2026-04-22 14:40 46.46483 46.78904 33912 ft 427 kts 321°
2026-04-22 14:41 46.51563 46.74415 33900 ft 429 kts 321°
2026-04-22 14:41 46.54117 46.72154 34058 ft 429 kts 321°
2026-04-22 14:41 46.56662 46.69897 34242 ft 430 kts 321°
2026-04-22 14:42 46.59215 46.67632 34406 ft 430 kts 321°
2026-04-22 14:42 46.61771 46.65356 34570 ft 431 kts 321°
2026-04-22 14:42 46.64306 46.63096 34756 ft 431 kts 321°
2026-04-22 14:42 46.66869 46.60812 34898 ft 432 kts 321°
2026-04-22 14:43 46.69437 46.58524 35042 ft 433 kts 321°
2026-04-22 14:43 46.72010 46.56226 35169 ft 434 kts 321°
2026-04-22 14:43 46.74587 46.53922 35309 ft 435 kts 321°
2026-04-22 14:43 46.77173 46.51611 35450 ft 435 kts 321°
2026-04-22 14:44 46.79758 46.49300 35593 ft 436 kts 322°
2026-04-22 14:44 46.82354 46.46977 35726 ft 438 kts 322°
2026-04-22 14:44 46.84947 46.44654 35862 ft 439 kts 322°
2026-04-22 14:44 46.87552 46.42315 35878 ft 440 kts 322°
2026-04-22 14:45 46.92774 46.37602 35869 ft 441 kts 322°
2026-04-22 14:45 46.97993 46.32890 35868 ft 441 kts 322°
2026-04-22 14:46 47.03213 46.28164 35895 ft 441 kts 322°
2026-04-22 14:46 47.08700 46.23987 35856 ft 446 kts 328°
2026-04-22 14:47 47.14301 46.20069 35853 ft 446 kts 328°
2026-04-22 14:47 47.19904 46.16125 35850 ft 446 kts 328°
2026-04-22 14:48 47.25514 46.12185 35872 ft 447 kts 328°
2026-04-22 14:48 47.31083 46.08268 35872 ft 447 kts 328°
2026-04-22 14:49 47.36686 46.04297 35861 ft 447 kts 328°
2026-04-22 14:49 47.42294 46.00309 35851 ft 447 kts 328°
2026-04-22 14:50 47.47909 45.96338 35850 ft 448 kts 328°
2026-04-22 14:50 47.53534 45.92354 35841 ft 448 kts 328°
2026-04-22 14:51 47.59150 45.88358 35841 ft 448 kts 328°
2026-04-22 14:51 47.64763 45.84358 35841 ft 448 kts 328°
2026-04-22 14:52 47.70381 45.80350 35849 ft 448 kts 328°
2026-04-22 14:52 47.75993 45.76322 35840 ft 448 kts 328°
2026-04-22 14:53 47.81618 45.72291 35838 ft 449 kts 328°
2026-04-22 14:53 47.87244 45.68253 35826 ft 449 kts 328°
2026-04-22 14:54 47.92874 45.64193 35839 ft 449 kts 329°
2026-04-22 14:54 47.98494 45.60115 35827 ft 450 kts 329°
2026-04-22 14:55 48.04125 45.56025 35822 ft 450 kts 329°
2026-04-22 14:55 48.09752 45.51932 35818 ft 450 kts 329°
2026-04-22 14:56 48.15384 45.47831 35829 ft 450 kts 329°
2026-04-22 14:56 48.20640 45.43076 35821 ft 442 kts 319°
2026-04-22 14:57 48.25578 45.37579 35818 ft 442 kts 319°
2026-04-22 14:57 48.30516 45.32057 35808 ft 443 kts 319°
2026-04-22 14:58 48.35456 45.26520 35808 ft 443 kts 319°
2026-04-22 14:58 48.40403 45.20974 35804 ft 444 kts 319°
2026-04-22 14:59 48.45350 45.15411 35795 ft 444 kts 319°
2026-04-22 14:59 48.50291 45.09825 35812 ft 444 kts 319°
2026-04-22 15:00 48.55235 45.04224 35796 ft 445 kts 319°
2026-04-22 15:00 48.60185 44.98611 35791 ft 445 kts 319°
2026-04-22 15:01 48.65142 44.92985 35790 ft 445 kts 319°
2026-04-22 15:01 48.70093 44.87341 35797 ft 446 kts 319°
2026-04-22 15:02 48.75041 44.81684 35789 ft 446 kts 319°
2026-04-22 15:02 48.79998 44.76010 35786 ft 446 kts 319°
2026-04-22 15:03 48.84944 44.70321 35780 ft 446 kts 319°
2026-04-22 15:03 48.89891 44.64617 35792 ft 447 kts 319°
2026-04-22 15:04 48.94841 44.58909 35791 ft 447 kts 319°
2026-04-22 15:04 48.99788 44.53183 35794 ft 447 kts 319°
2026-04-22 15:05 49.04716 44.47480 35782 ft 447 kts 319°
2026-04-22 15:05 49.09671 44.41723 35795 ft 447 kts 319°
2026-04-22 15:06 49.14611 44.35955 35787 ft 448 kts 319°
2026-04-22 15:06 49.19562 44.30158 35783 ft 448 kts 319°
2026-04-22 15:07 49.24507 44.24354 35783 ft 448 kts 319°
2026-04-22 15:07 49.29453 44.18535 35797 ft 448 kts 319°
2026-04-22 15:08 49.34402 44.12692 35792 ft 449 kts 319°
2026-04-22 15:08 49.39350 44.06851 35784 ft 449 kts 319°
2026-04-22 15:09 49.44297 44.01001 35784 ft 449 kts 319°
2026-04-22 15:09 49.49271 43.95180 35781 ft 450 kts 323°
2026-04-22 15:10 49.54990 43.91143 35785 ft 458 kts 342°
2026-04-22 15:10 49.61226 43.88941 35782 ft 460 kts 344°
2026-04-22 15:11 49.67433 43.86765 35782 ft 460 kts 343°
2026-04-22 15:11 49.73676 43.84564 35781 ft 460 kts 343°
2026-04-22 15:12 49.79926 43.82352 35785 ft 460 kts 344°
2026-04-22 15:12 49.86173 43.80138 35787 ft 461 kts 344°
2026-04-22 15:13 49.92419 43.77920 35780 ft 461 kts 344°
2026-04-22 15:13 49.98672 43.75686 35780 ft 461 kts 344°
2026-04-22 15:14 50.04929 43.73459 35787 ft 461 kts 344°
2026-04-22 15:14 50.11181 43.71224 35777 ft 461 kts 344°
2026-04-22 15:15 50.17396 43.68976 35786 ft 461 kts 344°
2026-04-22 15:15 50.23645 43.66721 35785 ft 461 kts 344°
2026-04-22 15:16 50.29906 43.64460 35798 ft 461 kts 344°
2026-04-22 15:16 50.36162 43.62206 35801 ft 461 kts 344°
2026-04-22 15:17 50.42422 43.59943 35790 ft 461 kts 344°
2026-04-22 15:17 50.48677 43.57662 35789 ft 461 kts 344°
2026-04-22 15:18 50.54930 43.55377 35791 ft 461 kts 344°
2026-04-22 15:18 50.61189 43.53092 35794 ft 461 kts 344°
2026-04-22 15:19 50.67447 43.50795 35789 ft 461 kts 344°
2026-04-22 15:19 50.73658 43.48507 35796 ft 462 kts 344°
2026-04-22 15:20 50.79917 43.46198 35786 ft 462 kts 344°
2026-04-22 15:20 50.86174 43.43877 35804 ft 462 kts 344°
2026-04-22 15:21 50.92436 43.41555 35799 ft 462 kts 344°
2026-04-22 15:21 50.98684 43.39237 35792 ft 462 kts 344°
2026-04-22 15:22 51.04945 43.36900 35794 ft 462 kts 344°
2026-04-22 15:22 51.11211 43.34557 35797 ft 462 kts 344°
2026-04-22 15:23 51.17464 43.32215 35809 ft 462 kts 345°
2026-04-22 15:23 51.23722 43.29860 35804 ft 461 kts 345°
2026-04-22 15:24 51.28925 43.27906 35799 ft 461 kts 345°
2026-04-22 15:24 51.36187 43.25164 35799 ft 461 kts 345°
2026-04-22 15:25 51.42430 43.22797 35804 ft 461 kts 345°
2026-04-22 15:25 51.48671 43.20428 35802 ft 461 kts 345°
2026-04-22 15:26 51.53855 43.18454 35804 ft 461 kts 345°
2026-04-22 15:26 51.60097 43.16073 35798 ft 461 kts 345°
2026-04-22 15:27 51.66334 43.13666 35797 ft 461 kts 345°
2026-04-22 15:27 51.72571 43.11264 35799 ft 461 kts 345°
2026-04-22 15:28 51.78803 43.08855 35800 ft 460 kts 345°
2026-04-22 15:28 51.85038 43.06453 35799 ft 460 kts 345°
2026-04-22 15:29 51.91233 43.04066 35798 ft 460 kts 345°
2026-04-22 15:30 52.00583 43.00434 35795 ft 460 kts 345°
2026-04-22 15:30 52.06808 42.97990 35793 ft 460 kts 345°
2026-04-22 15:31 52.13027 42.95543 35795 ft 460 kts 345°
2026-04-22 15:31 52.19251 42.93108 35794 ft 460 kts 345°
2026-04-22 15:32 52.25474 42.90666 35785 ft 460 kts 345°
2026-04-22 15:32 52.31689 42.88211 35791 ft 460 kts 345°
2026-04-22 15:33 52.37864 42.85761 35787 ft 459 kts 345°
2026-04-22 15:33 52.44010 42.82933 35782 ft 457 kts 335°
2026-04-22 15:34 52.49365 42.77460 35773 ft 454 kts 317°
2026-04-22 15:34 52.53540 42.69735 35770 ft 452 kts 308°
2026-04-22 15:35 52.57523 42.61715 35770 ft 453 kts 309°
2026-04-22 15:35 52.61506 42.53683 35765 ft 453 kts 308°
2026-04-22 15:36 52.65478 42.45631 35761 ft 453 kts 308°
2026-04-22 15:36 52.69450 42.37567 35760 ft 453 kts 308°
2026-04-22 15:37 52.73423 42.29484 35764 ft 453 kts 309°
2026-04-22 15:37 52.77387 42.21376 35758 ft 454 kts 309°
2026-04-22 15:38 52.81317 42.13310 35755 ft 454 kts 309°
2026-04-22 15:38 52.87242 42.01094 35757 ft 454 kts 308°
2026-04-22 15:39 52.91192 41.92910 35746 ft 454 kts 309°
2026-04-22 15:39 52.95136 41.84719 35738 ft 454 kts 309°
2026-04-22 15:40 52.99051 41.76574 35742 ft 454 kts 309°
2026-04-22 15:40 53.02988 41.68363 35736 ft 454 kts 309°
2026-04-22 15:41 53.06921 41.60139 35737 ft 454 kts 309°
2026-04-22 15:41 53.10845 41.51886 35739 ft 454 kts 309°
2026-04-22 15:42 53.14755 41.43624 35739 ft 454 kts 309°
2026-04-22 15:42 53.18667 41.35350 35735 ft 454 kts 309°
2026-04-22 15:43 53.22570 41.27048 35724 ft 454 kts 308°
2026-04-22 15:43 53.26232 41.18454 35736 ft 454 kts 304°
2026-04-22 15:44 53.29673 41.09602 35736 ft 454 kts 303°
2026-04-22 15:44 53.33086 41.00793 35737 ft 454 kts 304°
2026-04-22 15:45 53.36572 40.91987 35739 ft 454 kts 304°
2026-04-22 15:45 53.40076 40.83193 35732 ft 454 kts 305°
2026-04-22 15:46 53.43567 40.74374 35734 ft 454 kts 304°
2026-04-22 15:46 53.47050 40.65549 35731 ft 453 kts 304°
2026-04-22 15:47 53.50522 40.56701 35732 ft 453 kts 304°
2026-04-22 15:47 53.53982 40.47849 35720 ft 453 kts 304°
2026-04-22 15:48 53.57437 40.38976 35725 ft 453 kts 304°
2026-04-22 15:48 53.60881 40.30089 35724 ft 453 kts 304°
2026-04-22 15:49 53.64305 40.21218 35722 ft 453 kts 304°
2026-04-22 15:49 53.67740 40.12310 35718 ft 453 kts 304°
2026-04-22 15:50 53.71165 40.03379 35724 ft 453 kts 304°
2026-04-22 15:50 53.74584 39.94455 35725 ft 452 kts 304°
2026-04-22 15:51 53.77993 39.85533 35725 ft 452 kts 304°
2026-04-22 15:51 53.81388 39.76593 35720 ft 451 kts 304°
2026-04-22 15:52 53.84777 39.67653 35708 ft 451 kts 304°
2026-04-22 15:52 53.88153 39.58711 35715 ft 450 kts 304°
2026-04-22 15:53 53.91493 39.49818 35714 ft 449 kts 306°
2026-04-22 15:53 53.95513 39.41776 35712 ft 446 kts 314°
2026-04-22 15:54 53.99716 39.34010 35708 ft 446 kts 314°
2026-04-22 15:54 54.03909 39.26230 35706 ft 446 kts 314°
2026-04-22 15:55 54.08092 39.18438 35698 ft 446 kts 314°
2026-04-22 15:55 54.12271 39.10631 35698 ft 446 kts 314°
2026-04-22 15:56 54.16446 39.02814 35693 ft 446 kts 314°
2026-04-22 15:56 54.20581 38.95020 35680 ft 446 kts 314°
2026-04-22 15:57 54.24869 38.87429 35690 ft 443 kts 319°
2026-04-22 15:57 54.29435 38.80342 35686 ft 443 kts 319°
2026-04-22 15:58 54.33991 38.73244 35692 ft 442 kts 319°
2026-04-22 15:58 54.38534 38.66137 35681 ft 442 kts 319°
2026-04-22 15:59 54.43072 38.59002 35674 ft 441 kts 319°
2026-04-22 15:59 54.47589 38.51868 35682 ft 441 kts 319°
2026-04-22 16:00 54.52100 38.44736 35684 ft 440 kts 319°
2026-04-22 16:00 54.56607 38.37603 35687 ft 440 kts 319°
2026-04-22 16:01 54.61105 38.30451 35685 ft 440 kts 319°
2026-04-22 16:01 54.65589 38.23281 35666 ft 439 kts 318°
2026-04-22 16:02 54.70067 38.16099 35669 ft 439 kts 318°
2026-04-22 16:02 54.74544 38.08896 35666 ft 439 kts 318°
2026-04-22 16:03 54.79013 38.01700 35664 ft 439 kts 318°
2026-04-22 16:03 54.83460 37.94511 35656 ft 439 kts 318°
2026-04-22 16:04 54.87914 37.87273 35659 ft 438 kts 318°
2026-04-22 16:04 54.92356 37.80025 35660 ft 438 kts 318°
2026-04-22 16:05 54.96800 37.72768 35658 ft 438 kts 318°
2026-04-22 16:05 55.01237 37.65499 35649 ft 438 kts 318°
2026-04-22 16:06 55.05659 37.58215 35638 ft 437 kts 318°
2026-04-22 16:06 55.10072 37.50919 35650 ft 437 kts 318°
2026-04-22 16:07 55.14489 37.43621 35662 ft 436 kts 317°
2026-04-22 16:07 55.18896 37.36314 35657 ft 436 kts 317°
2026-04-22 16:08 55.23299 37.28993 35656 ft 436 kts 317°
2026-04-22 16:08 55.27698 37.21658 35635 ft 436 kts 317°
2026-04-22 16:09 55.32056 37.14356 35643 ft 436 kts 317°
2026-04-22 16:09 55.36436 37.06992 35644 ft 436 kts 317°
2026-04-22 16:10 55.40815 36.99619 35645 ft 436 kts 317°
2026-04-22 16:10 55.45189 36.92227 35642 ft 436 kts 317°
2026-04-22 16:11 55.49547 36.84817 35638 ft 435 kts 317°
2026-04-22 16:11 55.54028 36.77677 35638 ft 433 kts 325°
2026-04-22 16:12 55.58909 36.71441 35634 ft 433 kts 325°
2026-04-22 16:12 55.63758 36.65227 35629 ft 433 kts 325°
2026-04-22 16:13 55.68630 36.58958 35623 ft 433 kts 325°
2026-04-22 16:13 55.73485 36.52689 35632 ft 431 kts 325°
2026-04-22 16:14 55.77555 36.47416 35631 ft 431 kts 325°
2026-04-22 16:14 55.82350 36.41178 35646 ft 430 kts 325°
2026-04-22 16:15 55.87185 36.34873 35626 ft 430 kts 324°
2026-04-22 16:15 55.92009 36.28566 35615 ft 430 kts 324°
2026-04-22 16:16 55.96833 36.22246 35608 ft 429 kts 324°
2026-04-22 16:16 56.01638 36.15925 35611 ft 428 kts 324°
2026-04-22 16:17 56.06429 36.09591 35605 ft 428 kts 324°
2026-04-22 16:17 56.11211 36.03254 35603 ft 427 kts 324°
2026-04-22 16:18 56.16003 35.96940 35596 ft 427 kts 324°
2026-04-22 16:18 56.20785 35.90613 35588 ft 427 kts 324°
2026-04-22 16:19 56.25535 35.84316 35584 ft 427 kts 324°
2026-04-22 16:19 56.30306 35.77955 35581 ft 427 kts 324°
2026-04-22 16:20 56.35073 35.71569 35567 ft 427 kts 324°
2026-04-22 16:20 56.39839 35.65172 35571 ft 427 kts 324°
2026-04-22 16:21 56.44605 35.58778 35565 ft 426 kts 324°
2026-04-22 16:21 56.49353 35.52388 35574 ft 425 kts 324°
2026-04-22 16:22 56.56456 35.42753 35563 ft 424 kts 324°
2026-04-22 16:23 56.63529 35.33076 35558 ft 424 kts 324°
2026-04-22 16:23 56.68188 35.26625 35545 ft 424 kts 324°
2026-04-22 16:24 56.75197 35.16857 35551 ft 423 kts 324°
2026-04-22 16:25 56.79865 35.10353 35553 ft 422 kts 324°
2026-04-22 16:25 56.86861 35.00581 35549 ft 422 kts 324°
2026-04-22 16:26 56.91519 34.94064 35529 ft 421 kts 325°
2026-04-22 16:26 56.96336 34.88030 35564 ft 419 kts 328°
2026-04-22 16:27 57.01274 34.82341 35538 ft 418 kts 329°
2026-04-22 16:27 57.06189 34.76605 35534 ft 419 kts 328°
2026-04-22 16:28 57.11066 34.70744 35530 ft 419 kts 328°
2026-04-22 16:28 57.15928 34.64840 35529 ft 419 kts 328°
2026-04-22 16:29 57.20788 34.58941 35514 ft 418 kts 328°
2026-04-22 16:29 57.25606 34.53092 35526 ft 417 kts 328°
2026-04-22 16:30 57.30447 34.47194 35523 ft 416 kts 328°
2026-04-22 16:30 57.35271 34.41287 35523 ft 416 kts 328°
2026-04-22 16:31 57.40100 34.35372 35509 ft 416 kts 328°
2026-04-22 16:31 57.44920 34.29451 35492 ft 415 kts 328°
2026-04-22 16:32 57.49730 34.23522 35504 ft 414 kts 328°
2026-04-22 16:32 57.54528 34.17570 35527 ft 414 kts 327°
2026-04-22 16:33 57.59319 34.11607 35515 ft 415 kts 327°
2026-04-22 16:33 57.64116 34.05630 35504 ft 415 kts 327°
2026-04-22 16:34 57.68914 33.99630 35501 ft 415 kts 327°
2026-04-22 16:34 57.73704 33.93620 35492 ft 414 kts 327°
2026-04-22 16:35 57.78483 33.87600 35503 ft 413 kts 327°
2026-04-22 16:35 57.83215 33.81610 35503 ft 413 kts 327°
2026-04-22 16:36 57.87962 33.75520 35510 ft 413 kts 326°
2026-04-22 16:36 57.92498 33.68885 35508 ft 414 kts 322°
2026-04-22 16:37 57.96915 33.61945 35498 ft 413 kts 322°
2026-04-22 16:37 58.01334 33.55049 35515 ft 412 kts 323°
2026-04-22 16:38 58.05775 33.48244 35526 ft 411 kts 323°
2026-04-22 16:38 58.10235 33.41452 35509 ft 411 kts 323°
2026-04-22 16:39 58.14672 33.34630 35503 ft 411 kts 322°
2026-04-22 16:39 58.19103 33.27773 35512 ft 412 kts 322°
2026-04-22 16:40 58.23536 33.20907 35428 ft 411 kts 323°
2026-04-22 16:40 58.27954 33.14058 34946 ft 408 kts 323°
2026-04-22 16:41 58.30148 33.10638 34702 ft 407 kts 323°
2026-04-22 16:41 58.32334 33.07223 34463 ft 406 kts 323°
2026-04-22 16:41 58.34510 33.03820 34239 ft 405 kts 323°
2026-04-22 16:41 58.36690 33.00401 34011 ft 404 kts 323°
2026-04-22 16:42 58.38833 32.97030 33783 ft 404 kts 323°
2026-04-22 16:42 58.40994 32.93622 33560 ft 403 kts 322°
2026-04-22 16:42 58.43149 32.90224 33295 ft 402 kts 323°
2026-04-22 16:42 58.45304 32.86833 33085 ft 401 kts 322°
2026-04-22 16:43 58.47463 32.83441 32810 ft 402 kts 323°
2026-04-22 16:43 58.49622 32.80046 32546 ft 401 kts 322°
2026-04-22 16:43 58.51768 32.76659 32288 ft 401 kts 322°
2026-04-22 16:43 58.53883 32.73312 32029 ft 400 kts 322°
2026-04-22 16:44 58.56059 32.69853 31761 ft 400 kts 322°
2026-04-22 16:44 58.58205 32.66432 31504 ft 399 kts 322°
2026-04-22 16:44 58.60330 32.63032 31253 ft 398 kts 322°
2026-04-22 16:44 58.62426 32.59674 31006 ft 398 kts 322°
2026-04-22 16:45 58.64556 32.56266 30760 ft 397 kts 322°
2026-04-22 16:45 58.66676 32.52880 30579 ft 397 kts 322°
2026-04-22 16:45 58.68808 32.49466 30334 ft 400 kts 321°
2026-04-22 16:45 58.70949 32.46022 30094 ft 401 kts 321°
2026-04-22 16:46 58.73087 32.42571 29858 ft 401 kts 321°
2026-04-22 16:46 58.75222 32.39115 29618 ft 401 kts 321°
2026-04-22 16:46 58.77358 32.35668 29331 ft 401 kts 321°
2026-04-22 16:46 58.79499 32.32215 29050 ft 402 kts 321°
2026-04-22 16:47 58.81644 32.28750 28762 ft 403 kts 321°
2026-04-22 16:47 58.83795 32.25268 28478 ft 404 kts 321°
2026-04-22 16:47 58.85223 32.22953 27935 ft 403 kts 320°
2026-04-22 16:47 58.88093 32.18274 26393 ft 403 kts 320°
2026-04-22 16:48 58.90238 32.14770 25290 ft 404 kts 319°
2026-04-22 16:48 58.92382 32.11270 24235 ft 404 kts 319°
2026-04-22 16:48 58.94527 32.07770 23222 ft 403 kts 319°
2026-04-22 16:48 58.96669 32.04261 22032 ft 402 kts 319°
2026-04-22 16:49 58.98772 32.00806 20886 ft 401 kts 319°
2026-04-22 16:49 59.00896 31.97310 19779 ft 400 kts 319°
2026-04-22 16:49 59.03009 31.93824 18849 ft 396 kts 319°
2026-04-22 16:49 59.05089 31.90386 18061 ft 390 kts 319°
2026-04-22 16:50 59.07139 31.86992 17183 ft 384 kts 319°
2026-04-22 16:50 59.09168 31.83627 16254 ft 382 kts 319°
2026-04-22 16:50 59.11173 31.80264 15271 ft 381 kts 318°
2026-04-22 16:50 59.13127 31.76761 14267 ft 383 kts 316°
2026-04-22 16:51 59.15004 31.73214 13081 ft 371 kts 316°
2026-04-22 16:51 59.16816 31.69698 11835 ft 362 kts 315°
2026-04-22 16:51 59.18523 31.66362 11433 ft 332 kts 316°
2026-04-22 16:51 59.20060 31.63365 11224 ft 302 kts 316°
2026-04-22 16:52 59.21484 31.60610 11060 ft 275 kts 317°
2026-04-22 16:52 59.22812 31.58061 10612 ft 263 kts 317°
2026-04-22 16:52 59.24123 31.55560 10247 ft 261 kts 317°
2026-04-22 16:52 59.25407 31.53118 10122 ft 256 kts 317°
2026-04-22 16:53 59.26683 31.50691 10066 ft 256 kts 317°
2026-04-22 16:53 59.27955 31.48264 9981 ft 255 kts 317°
2026-04-22 16:53 59.29227 31.45830 9894 ft 255 kts 316°
2026-04-22 16:53 59.30501 31.43381 9758 ft 258 kts 316°
2026-04-22 16:54 59.31785 31.40908 9648 ft 259 kts 316°
2026-04-22 16:54 59.33070 31.38438 9535 ft 258 kts 316°
2026-04-22 16:54 59.34356 31.35964 9182 ft 259 kts 316°
2026-04-22 16:54 59.35631 31.33503 8820 ft 256 kts 316°
2026-04-22 16:55 59.36893 31.31061 8484 ft 254 kts 316°
2026-04-22 16:55 59.38146 31.28638 8147 ft 252 kts 316°
2026-04-22 16:55 59.39373 31.26268 7814 ft 250 kts 316°
2026-04-22 16:55 59.40624 31.23849 7480 ft 248 kts 317°
2026-04-22 16:56 59.41827 31.21523 7176 ft 244 kts 317°
2026-04-22 16:56 59.43029 31.19193 6856 ft 242 kts 317°
2026-04-22 16:56 59.44215 31.16885 6539 ft 240 kts 317°
2026-04-22 16:56 59.45396 31.14585 6223 ft 238 kts 317°
2026-04-22 16:57 59.46566 31.12302 5902 ft 236 kts 317°
2026-04-22 16:57 59.47724 31.10035 5585 ft 234 kts 317°
2026-04-22 16:57 59.48875 31.07779 5274 ft 233 kts 317°
2026-04-22 16:57 59.50021 31.05542 4972 ft 231 kts 317°
2026-04-22 16:58 59.50776 31.04071 4771 ft 230 kts 317°
2026-04-22 16:58 59.52269 31.01082 4597 ft 230 kts 315°
2026-04-22 16:58 59.53326 30.98723 4467 ft 229 kts 313°
2026-04-22 16:58 59.54362 30.96336 4337 ft 229 kts 313°
2026-04-22 16:59 59.55388 30.93954 4205 ft 228 kts 313°
2026-04-22 16:59 59.56391 30.91624 4068 ft 216 kts 313°
2026-04-22 16:59 59.57326 30.89458 3935 ft 204 kts 313°
2026-04-22 16:59 59.58235 30.87360 3807 ft 193 kts 314°
2026-04-22 17:00 59.59075 30.85419 3676 ft 184 kts 314°
2026-04-22 17:00 59.60719 30.81628 3413 ft 181 kts 314°
2026-04-22 17:00 59.61536 30.79743 3284 ft 180 kts 314°
2026-04-22 17:01 59.62332 30.77902 3135 ft 173 kts 313°
2026-04-22 17:01 59.63101 30.76120 3002 ft 167 kts 313°
2026-04-22 17:01 59.63853 30.74382 2870 ft 165 kts 313°
2026-04-22 17:01 59.64599 30.72667 2746 ft 165 kts 313°
2026-04-22 17:02 59.65346 30.70947 2598 ft 164 kts 313°
2026-04-22 17:02 59.66085 30.69242 2498 ft 160 kts 313°
2026-04-22 17:02 59.66574 30.68161 2441 ft 152 kts 317°
2026-04-22 17:02 59.67363 30.66956 2453 ft 134 kts 325°
2026-04-22 17:03 59.68097 30.65940 2485 ft 128 kts 324°
2026-04-22 17:03 59.68816 30.64939 2490 ft 125 kts 324°
2026-04-22 17:03 59.69526 30.63950 2488 ft 124 kts 324°
2026-04-22 17:03 59.70219 30.62985 2490 ft 124 kts 324°
2026-04-22 17:04 59.70933 30.61987 2492 ft 124 kts 324°
2026-04-22 17:04 59.71638 30.61003 2494 ft 124 kts 324°
2026-04-22 17:04 59.72345 30.60019 2493 ft 124 kts 324°
2026-04-22 17:04 59.73048 30.59039 2494 ft 124 kts 324°
2026-04-22 17:05 59.73751 30.58055 2494 ft 124 kts 324°
2026-04-22 17:05 59.74432 30.57016 2493 ft 124 kts 315°
2026-04-22 17:05 59.74925 30.55607 2463 ft 127 kts 300°
2026-04-22 17:05 59.75194 30.53946 2358 ft 125 kts 293°
2026-04-22 17:06 59.75436 30.52311 2269 ft 123 kts 294°
2026-04-22 17:06 59.75676 30.50684 2189 ft 123 kts 293°
2026-04-22 17:06 59.75915 30.49067 2133 ft 122 kts 293°
2026-04-22 17:06 59.76157 30.47450 2066 ft 122 kts 293°
2026-04-22 17:07 59.76399 30.45836 1941 ft 122 kts 293°
2026-04-22 17:07 59.76640 30.44230 1847 ft 121 kts 292°
2026-04-22 17:07 59.76880 30.42632 1680 ft 121 kts 291°
2026-04-22 17:07 59.77120 30.41041 1516 ft 120 kts 290°
2026-04-22 17:08 59.77359 30.39453 1333 ft 120 kts 290°
2026-04-22 17:08 59.77598 30.37859 1144 ft 121 kts 290°
2026-04-22 17:08 59.77838 30.36233 940 ft 124 kts 290°
2026-04-22 17:08 59.78083 30.34616 824 ft 121 kts 288°
2026-04-22 17:09 59.78331 30.32999 649 ft 124 kts 288°
2026-04-22 17:09 59.78572 30.31335 438 ft 125 kts 287°
2026-04-22 17:09 59.78806 30.29700 279 ft 122 kts 289°
2026-04-22 17:09 59.79053 30.28095 138 ft 121 kts 288°
2026-04-22 17:10 59.79282 30.26580 94 ft 102 kts 288°
2026-04-22 17:10 59.79440 30.25538 92 ft 54 kts 286°
2026-04-22 17:10 59.79518 30.25005 89 ft 36 kts 287°
2026-04-22 17:10 59.79584 30.24571 90 ft 30 kts 287°
2026-04-22 17:11 59.79639 30.24210 87 ft 26 kts 287°
2026-04-22 17:11 59.79686 30.23885 89 ft 24 kts 287°
2026-04-22 17:11 59.79732 30.23576 90 ft 23 kts 286°
2026-04-22 17:11 59.79794 30.23303 87 ft 21 kts 303°
2026-04-22 17:12 59.79887 30.23089 87 ft 15 kts 315°
2026-04-22 17:12 59.79956 30.23028 72 ft 12 kts 14°
2026-04-22 17:12 59.79974 30.23156 85 ft 10 kts 107°
2026-04-22 17:12 59.79951 30.23283 86 ft 9 kts 108°
2026-04-22 17:13 59.79936 30.23397 86 ft 8 kts 105°
2026-04-22 17:13 59.79920 30.23513 85 ft 14 kts 105°
2026-04-22 17:13 59.79880 30.23770 88 ft 20 kts 107°
2026-04-22 17:13 59.79842 30.24026 90 ft 19 kts 107°
2026-04-22 17:14 59.79807 30.24262 87 ft 17 kts 107°
2026-04-22 17:14 59.79775 30.24478 87 ft 16 kts 105°
2026-04-22 17:14 59.79747 30.24679 88 ft 15 kts 106°
2026-04-22 17:14 59.79717 30.24863 88 ft 13 kts 106°
2026-04-22 17:15 59.79700 30.24977 89 ft 13 kts 106°
2026-04-22 17:15 59.79669 30.25191 91 ft 11 kts 106°
2026-04-22 17:15 59.79639 30.25397 91 ft 19 kts 106°
2026-04-22 17:15 59.79604 30.25638 89 ft 17 kts 106°
2026-04-22 17:16 59.79572 30.25859 90 ft 16 kts 106°
2026-04-22 17:16 59.79542 30.26066 92 ft 15 kts 105°
2026-04-22 17:16 59.79516 30.26257 89 ft 11 kts 104°
2026-04-22 17:16 59.79519 30.26360 91 ft 7 kts 49°
2026-04-22 17:17 59.79572 30.26394 88 ft 9 kts 14°
2026-04-22 17:17 59.79630 30.26427 89 ft 8 kts 16°
2026-04-22 17:17 59.79672 30.26458 89 ft 5 kts 36°
2026-04-22 17:17 59.79674 30.26514 88 ft 4 kts 108°
2026-04-22 17:18 59.79667 30.26558 89 ft 2 kts 107°
2026-04-22 17:18 59.79667 30.26564 91 ft 0 kts 107°